Flag for USA

Past Weather in Washington Avenue Historic District, Georgia, USA — Yesterday and Last 2 Weeks

Now
69 °F

Passing clouds.


Feels Like: 69 °F
Forecast: 70 / 55 °F
Wind: No wind

Location: Fulton County Airport-Brown Field

Current Time: Oct 22, 2019 at 2:51:19 am

Latest Report: Oct 22, 2019 at 1:53 am


Visibility: 10 mi

Pressure: 29.87 "Hg

Humidity: 79%

Dew Point: 62 °F

Location of Washington Avenue Historic DistrictLocation

Past Weather in Washington Avenue Historic District — Graph

°F

Washington Avenue Historic District Temperature Yesterday

Maximum temperature yesterday: 76 °F (at 1:53 pm)
Minimum temperature yesterday: 53 °F (at 7:38 am)
Average temperature yesterday: 63 °F

High & Low Weather Summary for the Past Weeks

 TemperatureHumidityPressure
High82 °F (Oct 8, 4:53 pm)100% (Oct 21, 3:53 am)30.21 "Hg (Oct 21, 3:53 am)
Low41 °F (Oct 18, 6:53 am)31% (Oct 14, 12:53 pm)29.74 "Hg (Oct 19, 11:53 pm)
Average64 °F77%30.00 "Hg
* Reported Oct 7 12:53 am — Oct 22 12:53 am, Washington Avenue Historic District. Weather by CustomWeather, © 2019

Note: Actual official high and low records may vary slightly from our data, if they occured in-between our weather recording intervals... More about our weather records

Advertising

Washington Avenue Historic District Weather History for the Previous 24 Hours

Scroll right to see more
 ConditionsComfort  
Time TempWeatherWind HumidityBarometerVisibility
12:53 am
Tue, Oct 22
70 °FPassing clouds.8 mph79%29.89 "Hg10 mi
11:53 pm
Mon, Oct 21
70 °FPassing clouds.6 mph79%29.90 "Hg10 mi
10:53 pm70 °FPassing clouds.8 mph79%29.91 "Hg10 mi
9:53 pm71 °FPassing clouds.7 mph76%29.93 "Hg10 mi
8:53 pm71 °FOvercast.5 mph76%29.94 "Hg10 mi
7:53 pm71 °FPassing clouds.No wind73%29.95 "Hg10 mi
6:53 pm73 °FPassing clouds.5 mph69%29.92 "Hg10 mi
5:53 pm74 °FPassing clouds.5 mph67%29.92 "Hg10 mi
4:53 pm76 °FScattered clouds.8 mph62%29.94 "Hg10 mi
3:53 pm76 °FScattered clouds.7 mph60%29.93 "Hg10 mi
2:53 pm76 °FScattered clouds.6 mph62%29.94 "Hg10 mi
1:53 pm76 °FPassing clouds.9 mph62%29.95 "Hg10 mi
12:53 pm74 °FPassing clouds.10 mph67%29.98 "Hg10 mi
11:53 am71 °FSunny.9 mph73%29.98 "Hg10 mi
10:53 am68 °FSunny.6 mph78%30.00 "Hg10 mi
9:53 am61 °FScattered clouds.3 mph90%29.99 "Hg10 mi
8:53 am56 °FSunny.3 mph97%29.99 "Hg10 mi
7:53 am53 °FScattered clouds.No wind96%29.97 "Hg10 mi
7:38 am53 °FFog.No wind100%29.99 "Hg5 mi
7:01 am54 °FFog.No wind97%29.98 "Hg2 mi
6:13 am54 °FFog.No wind97%29.96 "Hg2 mi
5:43 am55 °FFog.No wind96%29.96 "Hg1 mi
5:03 am55 °FFog.No wind96%29.95 "Hg1 mi
4:53 am54 °FFog.No wind97%29.94 "Hg1 mi
4:20 am56 °FFog.No wind93%29.95 "Hg1 mi
3:53 am54 °FFog.No wind100%29.95 "Hg1 mi
3:32 am54 °FFog.No wind97%29.97 "Hg0 mi
3:16 am55 °FFog.No wind93%29.97 "Hg1 mi
3:09 am55 °FFog.No wind93%29.97 "Hg2 mi
2:53 am57 °FClear.No wind93%29.96 "Hg10 mi
2:35 am56 °FFog.No wind97%29.99 "Hg2 mi
2:18 am56 °FFog.No wind97%29.98 "Hg3 mi
Weather by CustomWeather, © 2019

See weather overview